Time,TemperatureF,DewpointF,PressureIn,WindDirection,WindDirectionDegrees,WindSpeedMPH,WindSpeedGustMPH,Humidity,HourlyPrecipIn,Conditions,Clouds,dailyrainin,SoftwareType,DateUTC
2014-09-30 00:23:00,76.0,74.0,29.83,NNW,336,0.0,0.0,93,0.00,,,1.12,,2014-09-30 04:23:00,
2014-09-30 00:53:00,76.0,74.0,29.83,NNW,336,0.0,0.0,93,0.00,,,1.12,,2014-09-30 04:53:00,
2014-09-30 01:22:00,76.0,74.0,29.83,NNW,336,0.0,0.0,94,0.00,,,1.12,,2014-09-30 05:22:00,
2014-09-30 01:52:00,77.0,75.0,29.83,NNW,336,0.0,0.0,93,0.00,,,1.12,,2014-09-30 05:52:00,
2014-09-30 02:22:00,77.0,75.0,29.83,NNW,336,0.0,0.0,93,0.00,,,1.12,,2014-09-30 06:22:00,
2014-09-30 02:53:00,76.0,74.0,29.83,NNW,336,0.0,0.0,94,0.00,,,1.12,,2014-09-30 06:53:00,
2014-09-30 03:23:00,76.0,74.0,29.81,NNW,336,0.0,0.0,93,0.00,,,1.12,,2014-09-30 07:23:00,
2014-09-30 03:52:00,76.0,74.0,29.80,NNW,336,0.0,0.0,93,0.00,,,1.12,,2014-09-30 07:52:00,
2014-09-30 04:23:00,77.0,75.0,29.79,NNW,336,0.0,0.0,93,0.00,,,1.12,,2014-09-30 08:23:00,
2014-09-30 04:52:00,77.0,75.0,29.79,NNW,336,0.0,0.0,93,0.00,,,1.12,,2014-09-30 08:52:00,
2014-09-30 05:22:00,76.0,74.0,29.80,NNW,336,0.0,0.0,93,0.00,,,1.12,,2014-09-30 09:22:00,
2014-09-30 05:53:00,76.0,74.0,29.80,NNW,336,0.0,0.0,93,0.00,,,1.12,,2014-09-30 09:53:00,
2014-09-30 06:23:00,76.0,74.0,29.80,NNW,336,0.0,1.0,93,0.00,,,1.12,,2014-09-30 10:23:00,
2014-09-30 06:54:00,76.0,74.0,29.80,NNW,336,0.0,1.0,93,0.00,,,1.12,,2014-09-30 10:54:00,
2014-09-30 07:22:00,77.0,75.0,29.82,NNW,336,0.0,1.0,93,0.00,,,1.12,,2014-09-30 11:22:00,
2014-09-30 07:53:00,77.0,75.0,29.83,NNW,336,0.0,1.0,93,0.00,,,1.12,,2014-09-30 11:53:00,
2014-09-30 08:22:00,77.0,75.0,29.83,NNW,336,0.0,1.0,93,0.00,,,1.12,,2014-09-30 12:22:00,
2014-09-30 08:52:00,78.0,76.0,29.84,South,174,0.0,5.0,93,0.00,,,1.12,,2014-09-30 12:52:00,
2014-09-30 09:22:00,79.0,77.0,29.85,South,171,2.0,5.0,93,0.00,,,1.12,,2014-09-30 13:22:00,
2014-09-30 09:52:00,80.0,77.0,29.85,South,171,3.0,5.0,92,0.00,,,1.12,,2014-09-30 13:52:00,
2014-09-30 10:23:00,81.0,77.0,29.85,South,169,0.0,8.0,89,0.00,,,1.12,,2014-09-30 14:23:00,
2014-09-30 10:52:00,83.0,77.0,29.85,SSE,148,1.0,8.0,83,0.00,,,1.12,,2014-09-30 14:52:00,
2014-09-30 11:22:00,84.0,76.0,29.84,SSE,155,3.0,9.0,77,0.00,,,1.12,,2014-09-30 15:22:00,
2014-09-30 11:54:00,85.0,76.0,29.84,SSE,163,5.0,8.0,74,0.00,,,1.12,,2014-09-30 15:54:00,
2014-09-30 12:24:00,86.0,77.0,29.84,SSE,157,5.0,8.0,74,0.00,,,1.12,,2014-09-30 16:24:00,
2014-09-30 12:53:00,87.0,76.0,29.84,SE,128,1.0,7.0,69,0.00,,,1.12,,2014-09-30 16:53:00,
2014-09-30 13:23:00,87.0,75.0,29.83,South,179,0.0,7.0,68,0.00,,,1.12,,2014-09-30 17:23:00,
2014-09-30 13:53:00,85.0,76.0,29.83,SE,144,1.0,5.0,74,0.00,,,1.12,,2014-09-30 17:53:00,
2014-09-30 14:22:00,86.0,77.0,29.80,SE,144,6.0,11.0,75,0.00,,,1.12,,2014-09-30 18:22:00,
2014-09-30 14:53:00,86.0,76.0,29.80,NW,314,1.0,9.0,73,0.00,,,1.12,,2014-09-30 18:53:00,
2014-09-30 15:22:00,86.0,76.0,29.80,NW,322,3.0,10.0,73,0.00,,,1.12,,2014-09-30 19:22:00,
2014-09-30 15:52:00,82.0,76.0,29.79,WNW,301,1.0,6.0,82,0.00,,,1.12,,2014-09-30 19:52:00,
2014-09-30 16:03:00,82.0,76.0,29.79,WNW,301,1.0,6.0,82,0.00,,,1.12,,2014-09-30 20:03:00,
2014-09-30 16:13:00,82.0,76.0,29.79,WNW,301,1.0,6.0,82,0.00,,,1.12,,2014-09-30 20:13:00,
2014-09-30 16:23:00,84.0,76.0,29.80,NNW,344,1.0,9.0,76,0.00,,,1.12,,2014-09-30 20:23:00,
2014-09-30 16:52:00,82.0,76.0,29.79,NW,317,0.0,9.0,82,0.00,,,1.12,,2014-09-30 20:52:00,
2014-09-30 17:22:00,83.0,76.0,29.80,SSE,166,5.0,7.0,79,0.00,,,1.12,,2014-09-30 21:22:00,
2014-09-30 17:53:00,84.0,76.0,29.78,South,171,0.0,3.0,76,0.00,,,1.12,,2014-09-30 21:53:00,
2014-09-30 18:23:00,84.0,76.0,29.79,South,171,3.0,8.0,77,0.00,,,1.12,,2014-09-30 22:23:00,
2014-09-30 18:53:00,84.0,76.0,29.79,SE,138,2.0,8.0,76,0.00,,,1.12,,2014-09-30 22:53:00,
2014-09-30 19:23:00,84.0,76.0,29.80,SSE,161,2.0,6.0,76,0.00,,,1.12,,2014-09-30 23:23:00,
2014-09-30 19:53:00,83.0,75.0,29.80,SSE,161,0.0,1.0,77,0.00,,,1.12,,2014-09-30 23:53:00,
2014-09-30 20:22:00,83.0,75.0,29.81,SSE,158,0.0,1.0,77,0.00,,,1.12,,2014-10-01 00:22:00,
2014-09-30 20:52:00,83.0,75.0,29.82,SSE,159,0.0,0.0,78,0.00,,,1.10,,2014-10-01 00:52:00,
2014-09-30 21:22:00,83.0,76.0,29.83,SSE,158,0.0,1.0,79,0.00,,,1.10,,2014-10-01 01:22:00,